696  
ASUS42 KMHX 122326  
RWRMHX  
WEATHER ROUNDUP FOR EASTERN NORTH CAROLINA  
NATIONAL WEATHER SERVICE NEWPORT/MOREHEAD CITY NC  
700 PM EDT WED AUG 12 2020  
 
NOTE: "FAIR" INDICATES FEW OR NO CLOUDS BELOW 12,000 FEET  
WITH NO SIGNIFICANT WEATHER AND/OR S TO VISIBILITY
 
 
NCZ015>017-031-032-045>047-102-103-130000-  
NORTH COAST  
 
CITY SKY/WX TMP DP RH WIND PRES REMARKS
 
EDENTON NOT AVBL  
ELIZABETH CITY SUNNY 88 75 65 S8 30.00R  
KITTY HAWK CLEAR 84 71 65 CALM 30.00R  
MANTEO MOSUNNY 84 72 67 S12 30.02R  
 

 
 
NCZ045>047-081-094-103-104-130000-  
CENTRAL COAST  
 
CITY SKY/WX TMP DP RH WIND PRES REMARKS
 
FRISCO CLEAR 87 76 69 S7 30.02R  
 

 
 
NCZ095-097-098-100-101-130000-  
SOUTHERN COAST  
 
CITY SKY/WX TMP DP RH WIND PRES REMARKS
 
BEAUFORT MOSUNNY 83 75 77 S13 30.00R  
CEDAR ISLAND NOT AVBL  
JACKSONVILLE LGT RAIN 80 75 84 S7 29.98R  
PINEY ISLAND PTCLDY 86 74 67 S10 30.00R  
WILMINGTON MOSUNNY 85 74 69 SE8 29.97R  
 

 
 
NCZ011>013-027>030-043-044-078>080-089-090>093-098-130000-  
COASTAL PLAIN  
 
CITY SKY/WX TMP DP RH WIND PRES REMARKS
 
AHOSKIE NOT AVBL  
CLINTON MOSUNNY 85 77 77 CALM 29.97R  
ELIZABETHTOWN MOSUNNY 84 74 72 S6 29.97R  
GOLDSBORO MOSUNNY 85 74 68 SE7 29.96R  
GREENVILLE MOSUNNY 82 77 83 CALM 30.00R  
HAVELOCK MOSUNNY 84 75 74 S7 30.00R  
KENANSVILLE SUNNY 84 73 70 SE5 29.97R  
KINSTON MOSUNNY 86 73 66 SE7 29.99R  
NEW BERN SUNNY 82 73 74 S7 30.00R  
RICHLANDS MOSUNNY 83 74 74 S8 29.99R  
ROCKY MOUNT SUNNY 84 75 74 CALM 29.99R  
WASHINGTON SUNNY 83 73 70 S8 30.00R  
WHITEVILLE NOT AVBL  
 

 
 
AMZ130-135-150-152-154-156-158-170-250-252-270-ANZ085-086-088-633-658-670-130000-  
MARINE OBSERVATIONS  
 
STATION/POSITION TIME TEMP WIND PRES WAVE SWELL
 
AIR SEA DIR/SP/G HT/PER HT/PER  
(UTC) (F) (DEG/KT/KT) (MB) (FT/S) (FT/S)  
64 E VA BEACH 2310 81 81 160/ 6/ 6 1016.5  
DUCK 2242 85 180/ 12/ 15 1015.5  
2 E DUCK 2256 74 N/A 1/10  
10 NE DUCK 2256 78 N/A 2/11  
OREGON INLET 2248 180/ 10/ 13 1016.3  
13E OREGON INLT 2256 81 N/A 2/11 2/11  
HATTERAS CG 2242 84 83 180/ 6/ 9 1016.5  
DIAMOND BUOY 2310 84 86 190/ 12/ 14 N/A  
CAPE LOOKOUT 2300 81 180/ 11/ 13 1015.9  
BEAUFORT LAB 2242 82 86 190/ 13/ 16 1016.2  
30 SE NEW RVR IN 2308 81 190/ 14/ 17 1015.2  
30 SE NEW RVR IN 2256 82 N/A 4/ 5  
27 SE WRIGHTSVLE 2308 81 83 210/ 14/ 17 1015.5  
5 SE WRIGHTSVLE 2308 80 83 200/ 10/ 14 1014.6  
27 SE WRIGHTSVL 2308 81 83 210/ 14/ 17 1015.5  
FRYING PAN BUOY 2310 81 83 210/ 12/ 14 N/A  
225 S CAPE HAT 2310 81 85 170/ 10/ 12 1017.1  
41 SE CHARLESTON 2310 82 84 200/ 14/ 16 1014.9  
 

 
 
 
CLICK HERE TO GO TO PREVIOUS BULLETINS.

The Nexlab NC Page Main Text Page